Weather History for EGHH - April, 2013

Change the Weather History Date:

Monday, April 29, 2013

  Actual Average Record
Temperature  
Mean Temperature 50 °F -  
Max Temperature 58 °F 61 °F 71 °F (2007)
Min Temperature 42 °F 44 °F 39 °F (2001)
Degree Days  
Heating Degree Days 15    
Moisture  
Dew Point 38 °F    
Average Humidity 60    
Maximum Humidity 95    
Minimum Humidity 32    
Precipitation  
Precipitation 0.00 in 0.07 in - ()
Sea Level Pressure  
Sea Level Pressure 30.07 in    
Wind  
Wind Speed 11 mph ()    
Max Wind Speed 18 mph    
Max Gust Speed 34 mph    
Visibility 7.6 miles    
Events Rain    
Averages and records for this station are not official NWS values.
T = Trace of Precipitation, MM = Missing Value Source: Averaged Metar Reports

Daily Weather History Graph

Daily Weather History Graph

Search for Another Location

Airport or City:

Trip Planner

Search our weather history database for the weather conditions in past years. The results will help you decide how hot, cold, wet, or windy it might be!

Date:

Astronomy

Apr. 29, 2013 Rise Set
Actual Time 5:45 AM BST 8:25 PM BST
Civil Twilight 5:07 AM BST 9:02 PM BST
Nautical Twilight 4:20 AM BST 9:50 PM BST
Astronomical Twilight 3:23 AM BST 10:47 PM BST
Moon No Moon Rise 8:37 AM BST (4/29)
Length of Visible Light 15h 54m
Length of Day
14h 40m
Waning Gibbous, 82% of the Moon is Illuminated
Apr 29
Waning Gibbous
May 2
Last Quarter
May 10
New
May 18
First Quarter
May 25
Full

Hourly Weather History & Observations

Time (BST) Temp. Windchill Dew Point Humidity Pressure Visibility Wind Dir Wind Speed Gust Speed Precip Events Conditions
12:50 AM 46 °F - 45 °F 95% 29.95 in 11 mi WSW 10.4 mph - - Rain Rain
3:50 AM 45 °F - 44 °F 92% 29.96 in 12 mi West 5.8 mph - -   Overcast
5:20 AM 44.6 °F 39.7 °F 41.0 °F 87% 29.95 in - WNW 9.2 mph - N/A   Clear
5:50 AM 42.8 °F 38.0 °F 39.2 °F 87% 29.98 in 6.2 mi WNW 8.1 mph - N/A   Partly Cloudy
6:20 AM 42.8 °F 37.5 °F 39.2 °F 87% 29.98 in - WNW 9.2 mph - N/A   Clear
6:50 AM 44 °F - 39 °F 76% 30.01 in 12 mi WNW 10.4 mph - -  
6:50 AM 44.6 °F 39.2 °F 39.2 °F 81% 30.01 in - WNW 10.4 mph - N/A   Clear
7:20 AM 44.6 °F 39.7 °F 39.2 °F 81% 30.01 in - WNW 9.2 mph - N/A   Clear
7:50 AM 46.4 °F 40.1 °F 39.2 °F 76% 30.01 in - WNW 15.0 mph - N/A   Clear
8:20 AM 46.4 °F 40.4 °F 41.0 °F 81% 30.01 in 6.2 mi WNW 13.8 mph - N/A   Partly Cloudy
8:50 AM 46.4 °F 40.1 °F 39.2 °F 76% 30.04 in 6.2 mi WNW 15.0 mph - N/A   Partly Cloudy
9:20 AM 48.2 °F - 37.4 °F 66% 30.04 in 6.2 mi NW 17.3 mph - N/A   Partly Cloudy
9:50 AM 50 °F - 38 °F 54% 30.06 in 12 mi NW 13.8 mph - -   Scattered Clouds
9:50 AM 50.0 °F - 37.4 °F 62% 30.04 in 6.2 mi WNW 13.8 mph - N/A   Partly Cloudy
10:20 AM 50.0 °F - 37.4 °F 62% 30.06 in 6.2 mi WNW 17.3 mph - N/A   Scattered Clouds
10:50 AM 53.6 °F - 37.4 °F 54% 30.06 in 6.2 mi NW 15.0 mph - N/A   Scattered Clouds
11:20 AM 53.6 °F - 37.4 °F 54% 30.06 in 6.2 mi West 16.1 mph - N/A   Scattered Clouds
11:50 AM 53.6 °F - 37.4 °F 54% 30.09 in 6.2 mi WNW 15.0 mph - N/A   Scattered Clouds
12:20 PM 55.4 °F - 39.2 °F 54% 30.09 in 6.2 mi NW 15.0 mph - N/A   Scattered Clouds
12:50 PM 55 °F - 36 °F 38% 30.09 in 17 mi WNW 16.1 mph - -   Scattered Clouds
12:50 PM 55.4 °F - 37.4 °F 51% 30.06 in 6.2 mi WNW 18.4 mph - N/A   Scattered Clouds
1:20 PM 53.6 °F - 35.6 °F 51% 30.09 in 6.2 mi WNW 18.4 mph 34.5 mph N/A   Scattered Clouds
1:50 PM 55.4 °F - 35.6 °F 47% 30.09 in 6.2 mi WNW 15.0 mph - N/A   Scattered Clouds
2:20 PM 55.4 °F - 35.6 °F 47% 30.09 in 6.2 mi NW 15.0 mph - N/A   Partly Cloudy
2:50 PM 57.2 °F - 37.4 °F 48% 30.09 in 6.2 mi NW 11.5 mph - N/A   Scattered Clouds
3:20 PM 53.6 °F - 35.6 °F 51% 30.09 in 6.2 mi NW 12.7 mph - N/A   Scattered Clouds
3:50 PM 57 °F - 35 °F 32% 30.12 in 22 mi NW 13.8 mph - -   Partly Cloudy
3:50 PM 59.0 °F - 37.4 °F 45% 30.09 in 6.2 mi NW 13.8 mph - N/A   Scattered Clouds
4:20 PM 57.2 °F - 35.6 °F 44% 30.09 in 6.2 mi NW 15.0 mph - N/A   Partly Cloudy
4:50 PM 57.2 °F - 33.8 °F 41% 30.09 in 6.2 mi WNW 16.1 mph - N/A   Partly Cloudy
5:20 PM 57.2 °F - 33.8 °F 41% 30.09 in 6.2 mi WNW 15.0 mph - N/A   Partly Cloudy
5:50 PM 55.4 °F - 33.8 °F 44% 30.09 in 6.2 mi NW 11.5 mph - N/A   Partly Cloudy
6:20 PM 55.4 °F - 35.6 °F 47% 30.12 in 6.2 mi NW 12.7 mph - N/A   Partly Cloudy
6:50 PM 54 °F - 34 °F 34% 30.13 in 22 mi WNW 15.0 mph - -   Scattered Clouds
6:50 PM 55.4 °F - 35.6 °F 47% 30.12 in 6.2 mi WNW 15.0 mph - N/A   Partly Cloudy
7:20 PM 53.6 °F - 35.6 °F 51% 30.12 in 6.2 mi NW 10.4 mph - N/A   Partly Cloudy
7:50 PM 51.8 °F - 37.4 °F 58% 30.12 in - NW 12.7 mph - N/A   Clear
8:20 PM 50.0 °F - 37.4 °F 62% 30.15 in - NW 10.4 mph - N/A   Clear
8:50 PM 48.2 °F - 37.4 °F 66% 30.15 in - WNW 9.2 mph - N/A   Clear
9:20 PM 48.2 °F - 37.4 °F 66% 30.18 in - NW 11.5 mph - N/A   Clear
9:50 PM 46 °F - 38 °F 63% 30.19 in 16 mi NW 9.2 mph - -  
9:50 PM 46.4 °F 41.5 °F 37.4 °F 71% 30.18 in - NW 10.4 mph - N/A   Clear
10:20 PM 44.6 °F 38.4 °F 37.4 °F 76% 30.18 in - WNW 12.7 mph - N/A   Clear